Location: ??? ????
(33.2296°N, 35.6484°E)
Time: 05:43:15
(UTC+00:00)

Daily predictions for brighter satellites

Satellite Brightness Start Highest point End
(mag) Time Altitude Azimuth Time Altitude Azimuth Time Altitude Azimuth
ATLAS 2AS CENTAUR R/B 3.9 00:46:13 41° N 00:46:13 41° N 00:51:11 10° NNE
Cosmos 2237 Rocket 4.1 00:52:00 23° NNE 00:52:00 23° NNE 00:54:01 10° NNE
USA 238 DEB 4.4 00:56:22 50° SE 00:56:22 50° SE 01:01:40 10° SSE
USA 238 4.4 00:56:23 51° SE 00:56:23 51° SE 01:01:45 10° SSE
H-2A ROCKET BODY 4.4 01:08:06 42° SSW 01:12:24 59° SSE 02:11:56 10° E
NOSS 3-2 (A) 4.0 01:16:14 70° NW 01:17:22 86° WSW 01:25:58 10° SSE
USA 267 4.2 01:14:54 10° NNE 01:19:28 35° N 01:19:28 35° N
Cosmos 676 Rocket 4.1 01:33:06 74° ENE 01:33:06 74° ENE 01:38:06 10° NNE
IDEFIX/ARIANE 42P 3.8 01:29:06 10° N 01:31:41 30° N 01:31:41 30° N
Cosmos 1953 3.9 01:33:01 19° NNE 01:35:17 34° E 01:38:56 10° SE
H-2A R/B 3.9 01:31:50 10° NNE 01:34:14 32° NNE 01:34:14 32° NNE
BREEZE-M DEB (TANK) 4.2 01:40:09 66° WSW 01:41:04 82° NW 01:57:36 10° NE
Meteor 1-31 Rocket 4.4 01:38:51 10° NNE 01:42:17 32° E 01:45:41 10° SSE
NOSS 3-2 (C) 4.0 01:38:18 26° NNW 01:43:21 86° WSW 01:51:57 10° SSE
SL-16 R/B 2.3 01:41:22 36° S 01:43:45 74° ESE 01:49:24 10° NNE
CZ-4B R/B 4.2 01:44:52 10° NNE 01:48:27 36° E 01:51:51 10° SSE
USA 234 4.3 01:44:41 10° ESE 01:50:40 40° NE 01:56:27 11° NNW
MSX 3.7 01:49:50 10° N 01:55:32 72° WNW 01:59:24 21° SSW
Cosmos 2278 Rocket 2.1 01:58:15 53° WNW 01:59:05 59° WSW 02:04:37 10° S
RESURS DK-1 3.5 02:08:15 30° NNW 02:08:15 30° NNW 02:10:42 10° N
Cosmos 2327 Rocket 4.4 02:00:54 10° SSW 02:07:04 62° W 02:13:10 10° N
Cosmos 44 3.1 02:08:08 52° SW 02:08:08 52° SW 02:11:56 10° SSE
ATLAS 3B R/B 2.6 02:03:16 13° NNW 02:09:31 89° WSW 02:16:29 10° SSE
Cosmos 1850 Rocket 4.4 02:06:32 10° S 02:11:37 62° ESE 02:16:44 10° NNE
Cosmos 2154 Rocket 3.8 02:05:43 10° SSW 02:11:51 71° W 02:18:04 10° N
Okean 1-7 Rocket 3.5 02:07:45 10° S 02:12:11 89° W 02:16:41 10° N
Cosmos 2228 3.0 02:10:04 10° N 02:14:19 77° E 02:18:32 10° S
Cosmos 1140 Rocket 4.4 02:16:16 29° NW 02:16:16 29° NW 02:19:50 10° N
CENTAUR R/B 3.2 02:09:56 10° NW 02:18:16 73° WSW 02:26:56 10° SSE
Cosmos 1954 Rocket 4.4 02:17:40 38° W 02:18:31 40° WNW 02:23:26 10° N
Cosmos 1726 Rocket 3.4 02:21:08 10° N 02:25:28 83° W 02:29:47 10° S
In-Cosmos 22 4.0 02:22:27 10° SSW 02:27:44 64° W 02:33:08 10° N
Cosmos 44 Rocket 4.4 02:23:21 10° NNW 02:27:49 42° ENE 02:32:15 10° SE
Meteor PRIRODA 3.6 02:25:01 10° NNE 02:28:45 88° ESE 02:32:27 10° SSW
KORONAS-FOTON 4.1 02:27:54 10° S 02:31:38 67° E 02:35:23 10° NNE
PAYLOAD A 4.4 02:27:20 10° N 02:31:52 37° WNW 02:36:32 10° SW
SL-8 R/B 3.8 02:30:06 29° WSW 02:32:20 57° NW 02:37:04 10° NE
Cosmos 2237 Rocket 3.9 02:33:53 14° NW 02:33:53 14° NW 02:36:03 10° NNW
Nadezhda 3 Rocket 4.0 02:29:17 10° NNW 02:35:34 64° W 02:41:46 10° S
CZ-4B R/B 4.2 02:33:53 10° N 02:37:48 44° WNW 02:41:52 10° SSW
Cosmos 1437 Rocket 2.8 02:36:15 10° SSW 02:39:53 47° W 02:43:33 10° N
Meteor 2-5 Rocket 3.7 02:35:12 10° S 02:40:59 84° W 02:46:54 10° N
Cosmos 2341 Rocket 3.9 02:35:33 10° SSW 02:41:45 70° W 02:47:58 10° N
SJ-12 4.4 02:39:05 10° NNE 02:43:09 64° E 02:47:14 10° S
CZ-2C R/B 3.2 02:43:15 10° N 02:47:49 33° WNW 02:52:18 10° SW
COBE Rocket 4.2 02:44:18 10° SSE 02:49:18 76° ENE 02:54:26 10° N
CZ-4B DEB 4.2 02:46:15 10° NNE 02:51:44 87° ESE 02:57:11 10° SSW
Cosmos 2058 Rocket 3.0 02:48:04 10° NNW 02:52:27 62° W 02:56:51 10° S
Cosmos 2369 Rocket 4.2 02:47:42 10° N 02:52:29 28° ENE 02:57:14 10° ESE
Okean O Rocket 2.3 02:49:41 10° NNE 02:54:01 59° E 02:58:18 10° S
Cosmos 1726 2.1 02:50:44 10° NNW 02:54:19 54° W 02:57:55 10° S
Cosmos 1356 4.2 02:53:53 10° NNW 02:56:58 31° W 03:00:02 10° SSW
Milstar 3 Cent rocket 2.7 02:51:53 12° WSW 02:57:08 48° S 03:01:33 10° ESE
Cosmos 1959 Rocket 4.5 02:51:48 10° S 02:57:53 89° E 03:04:05 10° N
PSLV R/B 4.0 02:55:04 10° N 02:58:33 40° WNW 03:02:01 10° SW
Cosmos 1908 3.1 02:55:00 10° N 02:58:49 83° W 03:02:36 10° S
SL-8 Rocket 3.9 02:54:24 10° SSW 03:00:33 70° W 03:06:43 10° N
SKYMED 2 3.6 02:56:28 10° SSE 03:00:47 86° ENE 03:05:08 10° N
Milstar 3 3.3 02:54:09 10° WSW 03:00:55 55° S 03:07:58 10° E
Cosmos 1741 Rocket 4.4 02:56:52 10° SW 03:01:54 43° WNW 03:06:59 10° N
CZ-4B R/B 3.4 03:00:07 10° NNE 03:05:24 75° ESE 03:10:42 10° S
PAYLOAD B 4.2 03:01:55 10° N 03:07:28 76° WNW 03:12:57 10° SSW
Cosmos 2366 rocket 4.0 03:04:19 10° S 03:10:39 76° W 03:17:02 10° N
Cosmos 1953 4.1 03:09:45 10° WNW 03:11:16 12° W 03:12:47 10° WSW
Cosmos 1763 Rocket 4.0 03:06:49 10° N 03:11:56 64° ENE 03:16:57 10° SSE
Cosmos 1943 Rocket 3.1 03:09:28 10° N 03:15:01 52° ENE 03:20:31 10° SE
Cosmos 1674 3.7 03:12:23 10° SW 03:15:22 23° WNW 03:18:23 10° NNW
BREEZE-M DEB (TANK) 3.3 03:08:10 10° WSW 03:16:27 40° NW 03:19:15 10° NNE
ISS -2.1 03:13:52 10° SSW 03:17:00 37° SE 03:20:08 10° ENE
METEOR-M 4.1 03:12:47 10° N 03:18:07 74° WNW 03:23:25 10° SSW
FENGYUN 3A 3.7 03:15:19 10° N 03:20:45 76° WNW 03:26:09 10° SSW
USA 116 3.5 03:22:13 10° S 03:26:05 72° WSW 03:29:32 10° NNW
Cosmos 1603 3.9 03:22:19 10° SW 03:27:44 50° WNW 03:33:13 10° N
